[[{"header":{"parameterUnit":"m.s-1","parameterCategory":1,"la1":30.2992,"la2":30.254,"lo1":-89.0895,"lo2":-89.0443,"dy":0.0025,"dx":0.0025,"nx":19,"ny":19,"refTime":"2026-05-15T09:00:00:Z","depth":0,"parameterNumber":2,"parameterNumberName":"U-component_of_WINDS"},"data":[0,0,0,-1.9385,-1.9386,-1.9426,-1.9426,-1.947,-1.9471,0,0,0,0,0,0,0,0,0,0,0,-1.9369,-1.9369,-1.9385,-1.9386,-1.9426,-1.9426,-1.947,-1.9471,0,0,0,0,0,0,0,0,0,0,0,-1.9369,-1.9369,-1.9369,-1.9386,-1.9426,-1.9426,-1.947,-1.9442,0,0,0,0,0,0,0,0,0,0,-1.9405,-1.9385,-1.9369,-1.9369,-1.9386,-1.9426,-1.9426,-1.9441,-1.9444,-1.9449,0,-1.9452,0,-1.9462,-1.9473,-1.9473,0,0,0,-1.9389,-1.9383,-1.9398,-1.9369,-1.9387,-1.9426,-1.9409,-1.9443,-1.9446,-1.9453,-1.9453,-1.9455,-1.9463,-1.9473,-1.9474,-1.9492,-1.9492,0,0,-1.9387,-1.9374,-1.9395,-1.94,-1.9393,-1.9408,-1.941,-1.9445,-1.9444,-1.9453,-1.9456,-1.9464,-1.9474,-1.9474,-1.9493,-1.9492,0,0,0,-1.9378,-1.9372,-1.9386,-1.9398,-1.9406,-1.9409,-1.9412,-1.9443,-1.9449,-1.9457,-1.9464,-1.9474,-1.9474,-1.9493,-1.9492,-1.9477,0,0,0,-1.9377,-1.9367,-1.9385,-1.9377,-1.9405,-1.9425,-1.9408,-1.9446,-1.945,-1.9464,-1.9474,-1.9475,-1.9493,-1.9493,-1.9478,-1.9472,0,0,0,-1.9368,-1.9366,-1.937,-1.9376,-1.9393,-1.9424,-1.9432,-1.9447,-1.9455,-1.9473,-1.9475,-1.9493,-1.9493,-1.9478,-1.9472,-1.9473,0,0,0,-1.9354,-1.9355,-1.937,-1.9375,-1.9393,-1.9415,-1.9432,-1.9449,-1.9463,-1.9474,-1.9493,-1.9492,-1.9478,-1.9473,-1.9473,-1.9471,-1.9468,0,0,-1.9348,-1.9354,-1.9358,-1.9373,-1.9388,-1.941,-1.9423,-1.9448,-1.9462,-1.9481,-1.9482,-1.9477,-1.9473,-1.9473,-1.9461,-1.9459,0,0,0,-1.9352,-1.9355,-1.9362,-1.9375,-1.9395,-1.9411,-1.9436,-1.9445,-1.9463,-1.9469,-1.9478,-1.9476,-1.9476,-1.9476,-1.9474,-1.9476,-1.9492,-1.9492,-1.9492,-1.9325,-1.9343,-1.9351,-1.9375,-1.9387,-1.9413,-1.9425,-1.9442,-1.9456,-1.9458,-1.9464,-1.9454,-1.9453,-1.9451,-1.9453,-1.9464,-1.9464,-1.9464,-1.9464,-1.9319,-1.9326,-1.9346,-1.9361,-1.938,-1.9392,-1.9418,-1.9428,-1.9442,-1.9451,-1.9452,-1.946,-1.9449,-1.9451,-1.9463,-1.9463,-1.9463,-1.9463,-1.9463,-1.9303,-1.931,-1.9322,-1.9343,-1.9358,-1.9381,-1.9395,-1.9412,-1.9428,-1.9429,-1.9438,-1.9438,-1.944,-1.9432,-1.9432,-1.9432,-1.9432,-1.9432,-1.9432,-1.9282,-1.9296,-1.9305,-1.9327,-1.9338,-1.9355,-1.9382,-1.9394,-1.9411,-1.9422,-1.9422,-1.9436,-1.9445,-1.9446,-1.9432,-1.9432,-1.9432,-1.9432,-1.9432,-1.9268,-1.9274,-1.9288,-1.93,-1.9327,-1.9341,-1.9363,-1.9385,-1.9397,-1.9403,-1.9418,-1.9421,-1.9428,-1.943,-1.9431,-1.9414,-1.9414,-1.9414,-1.9414,-1.9254,-1.926,-1.9279,-1.9296,-1.9315,-1.9336,-1.9353,-1.9374,-1.9397,-1.9406,-1.9411,-1.9414,-1.9415,-1.9422,-1.9423,-1.9425,-1.9406,-1.9406,-1.9406,-1.9247,-1.9256,-1.9266,-1.9289,-1.9312,-1.9332,-1.9347,-1.9366,-1.9394,-1.9406,-1.9413,-1.9413,-1.9419,-1.942,-1.9432,-1.9434,-1.9437,0,0]},{"header":{"parameterUnit":"m.s-1","parameterCategory":1,"la1":30.2992,"la2":30.254,"lo1":-89.0895,"lo2":-89.0443,"dy":0.0025,"dx":0.0025,"nx":19,"ny":19,"refTime":"2026-05-15T09:00:00:Z","depth":0,"parameterNumber":3,"parameterNumberName":"V-component_of_WINDS"},"data":[0,0,0,4.0999,4.0998,4.0961,4.0961,4.0915,4.0914,0,0,0,0,0,0,0,0,0,0,0,4.1012,4.1011,4.0999,4.0998,4.0961,4.0961,4.0915,4.0914,0,0,0,0,0,0,0,0,0,0,0,4.1012,4.1011,4.1011,4.0998,4.0961,4.0961,4.0915,4.0942,0,0,0,0,0,0,0,0,0,0,4.0977,4.0992,4.1011,4.1011,4.0998,4.0961,4.0961,4.0943,4.094,4.0932,0,4.0927,0,4.092,4.0911,4.0911,0,0,0,4.0996,4.0994,4.0983,4.1011,4.0997,4.0961,4.0977,4.0941,4.0938,4.0928,4.0926,4.0925,4.0919,4.0911,4.0911,4.0876,4.0876,0,0,4.0998,4.1006,4.0985,4.0981,4.0988,4.0978,4.0976,4.0939,4.0937,4.0926,4.0923,4.0919,4.0911,4.091,4.0876,4.0876,0,0,0,4.1005,4.1007,4.0996,4.0983,4.0976,4.0977,4.0975,4.0939,4.0935,4.0923,4.0918,4.0911,4.091,4.0876,4.0876,4.0881,0,0,0,4.1006,4.1011,4.0997,4.1002,4.0977,4.0957,4.0975,4.0937,4.0933,4.0918,4.0911,4.091,4.0876,4.0876,4.0881,4.0882,0,0,0,4.1013,4.1012,4.1008,4.1002,4.0987,4.0958,4.0951,4.0936,4.093,4.0911,4.0909,4.0876,4.0876,4.0881,4.0881,4.0875,0,0,0,4.1022,4.1011,4.1008,4.0993,4.0987,4.0962,4.0952,4.0932,4.0916,4.091,4.0876,4.0876,4.0881,4.0881,4.0875,4.0871,4.087,0,0,4.1013,4.101,4.1001,4.0997,4.0975,4.0967,4.0944,4.0921,4.0911,4.0888,4.0887,4.0881,4.0881,4.0875,4.0863,4.0862,0,0,0,4.1001,4.0994,4.0987,4.0973,4.0957,4.0943,4.0924,4.0915,4.0896,4.0901,4.0876,4.0877,4.0872,4.087,4.087,4.0866,4.0875,4.0875,4.0875,4.0997,4.0987,4.0971,4.0957,4.0944,4.0925,4.0913,4.0898,4.089,4.0885,4.0878,4.0872,4.0869,4.0869,4.0865,4.0875,4.0875,4.0875,4.0875,4.0982,4.0971,4.0963,4.0945,4.0934,4.0918,4.0899,4.0894,4.0877,4.0876,4.0872,4.0872,4.0869,4.0864,4.0875,4.0875,4.0875,4.0875,4.0875,4.0978,4.0972,4.0963,4.0944,4.0929,4.0914,4.0899,4.0889,4.0879,4.0875,4.0866,4.0866,4.0865,4.0872,4.0872,4.0872,4.0872,4.0872,4.0872,4.0978,4.0968,4.0958,4.0941,4.0931,4.0917,4.0899,4.0888,4.0874,4.0868,4.0868,4.0861,4.0871,4.0873,4.0871,4.0871,4.0871,4.0871,4.0871,4.0966,4.0968,4.0951,4.0942,4.0921,4.0908,4.0896,4.0876,4.0866,4.0859,4.0853,4.0862,4.0858,4.0859,4.0861,4.0855,4.0855,4.0855,4.0855,4.0963,4.0961,4.0942,4.0928,4.0913,4.0901,4.0882,4.0867,4.0852,4.0845,4.0844,4.0846,4.0847,4.0843,4.0843,4.0845,4.0836,4.0836,4.0836,4.0955,4.0951,4.0938,4.0925,4.0908,4.0894,4.0875,4.0858,4.0841,4.0835,4.0839,4.084,4.0843,4.0845,4.0838,4.084,4.0843,0,0]}]]